Year,Month,Day,Hour,Minute,Value (Times are PST for temperature in C)
2014,09,15,00,00,13.80
2014,09,15,00,01,13.80
2014,09,15,00,02,13.80
2014,09,15,00,03,13.80
2014,09,15,00,04,13.80
2014,09,15,00,05,13.80
2014,09,15,00,06,13.80
2014,09,15,00,07,13.80
2014,09,15,00,08,13.80
2014,09,15,00,09,13.70
2014,09,15,00,10,13.70
2014,09,15,00,11,13.70
2014,09,15,00,12,13.70
2014,09,15,00,13,13.70
2014,09,15,00,14,13.70
2014,09,15,00,15,13.60
2014,09,15,00,16,13.60
2014,09,15,00,17,13.60
2014,09,15,00,18,13.60
2014,09,15,00,19,13.50
2014,09,15,00,20,13.50
2014,09,15,00,21,13.40
2014,09,15,00,22,13.40
2014,09,15,00,23,13.40
2014,09,15,00,24,13.30
2014,09,15,00,25,13.30
2014,09,15,00,26,13.30
2014,09,15,00,27,13.30
2014,09,15,00,28,13.30
2014,09,15,00,29,13.20
2014,09,15,00,30,13.20
2014,09,15,00,31,13.20
2014,09,15,00,32,13.10
2014,09,15,00,33,13.10
2014,09,15,00,34,13.00
2014,09,15,00,35,13.00
2014,09,15,00,36,13.00
2014,09,15,00,37,12.90
2014,09,15,00,38,12.90
2014,09,15,00,39,12.80
2014,09,15,00,40,12.80
2014,09,15,00,41,12.80
2014,09,15,00,42,12.80
2014,09,15,00,43,12.80
2014,09,15,00,44,12.70
2014,09,15,00,45,12.70
2014,09,15,00,46,12.70
2014,09,15,00,47,12.70
2014,09,15,00,48,12.70
2014,09,15,00,49,12.70
2014,09,15,00,50,12.70
2014,09,15,00,51,12.70
2014,09,15,00,52,12.70
2014,09,15,00,53,12.70
2014,09,15,00,54,12.70
2014,09,15,00,55,12.70
2014,09,15,00,56,12.60
2014,09,15,00,57,12.60
2014,09,15,00,58,12.60
2014,09,15,00,59,12.60
2014,09,15,01,00,12.60
2014,09,15,01,01,12.50
2014,09,15,01,02,12.50
2014,09,15,01,03,12.50
2014,09,15,01,04,12.50
2014,09,15,01,05,12.40
2014,09,15,01,06,12.40
2014,09,15,01,07,12.40
2014,09,15,01,08,12.40
2014,09,15,01,09,12.40
2014,09,15,01,10,12.30
2014,09,15,01,11,12.30
2014,09,15,01,12,12.30
2014,09,15,01,13,12.30
2014,09,15,01,14,12.30
2014,09,15,01,15,12.20
2014,09,15,01,16,12.20
2014,09,15,01,17,12.20
2014,09,15,01,18,12.10
2014,09,15,01,19,12.10
2014,09,15,01,20,12.10
2014,09,15,01,21,12.00
2014,09,15,01,22,12.00
2014,09,15,01,23,12.00
2014,09,15,01,24,11.90
2014,09,15,01,25,11.90
2014,09,15,01,26,11.90
2014,09,15,01,27,11.90
2014,09,15,01,28,11.80
2014,09,15,01,29,11.80
2014,09,15,01,30,11.80
2014,09,15,01,31,11.80
2014,09,15,01,32,11.70
2014,09,15,01,33,11.70
2014,09,15,01,34,11.70
2014,09,15,01,35,11.70
2014,09,15,01,36,11.60
2014,09,15,01,37,11.60
2014,09,15,01,38,11.60
2014,09,15,01,39,11.60
2014,09,15,01,40,11.60
2014,09,15,01,41,11.60
2014,09,15,01,42,11.60
2014,09,15,01,43,11.50
2014,09,15,01,44,11.50
2014,09,15,01,45,11.50
2014,09,15,01,46,11.50
2014,09,15,01,47,11.40
2014,09,15,01,48,11.40
2014,09,15,01,49,11.40
2014,09,15,01,50,11.40
2014,09,15,01,51,11.40
2014,09,15,01,52,11.30
2014,09,15,01,53,11.30
2014,09,15,01,54,11.30
2014,09,15,01,55,11.30
2014,09,15,01,56,11.30
2014,09,15,01,57,11.20
2014,09,15,01,58,11.20
2014,09,15,01,59,11.20
2014,09,15,02,00,11.10
2014,09,15,02,01,11.10
2014,09,15,02,02,11.10
2014,09,15,02,03,11.10
2014,09,15,02,04,11.10
2014,09,15,02,05,11.10
2014,09,15,02,06,11.10
2014,09,15,02,07,11.10
2014,09,15,02,08,11.10
2014,09,15,02,09,11.10
2014,09,15,02,10,11.10
2014,09,15,02,11,11.10
2014,09,15,02,12,11.10
2014,09,15,02,13,11.00
2014,09,15,02,14,11.00
2014,09,15,02,15,11.00
2014,09,15,02,16,11.00
2014,09,15,02,17,11.00
2014,09,15,02,18,11.00
2014,09,15,02,19,11.00
2014,09,15,02,20,11.00
2014,09,15,02,21,10.90
2014,09,15,02,22,10.90
2014,09,15,02,23,10.90
2014,09,15,02,24,10.90
2014,09,15,02,25,10.90
2014,09,15,02,26,10.90
2014,09,15,02,27,10.90
2014,09,15,02,28,10.90
2014,09,15,02,29,10.90
2014,09,15,02,30,10.80
2014,09,15,02,31,10.80
2014,09,15,02,32,10.80
2014,09,15,02,33,10.80
2014,09,15,02,34,10.80
2014,09,15,02,35,10.70
2014,09,15,02,36,10.70
2014,09,15,02,37,10.70
2014,09,15,02,38,10.70
2014,09,15,02,39,10.60
2014,09,15,02,40,10.60
2014,09,15,02,41,10.60
2014,09,15,02,42,10.60
2014,09,15,02,43,10.60
2014,09,15,02,44,10.60
2014,09,15,02,45,10.60
2014,09,15,02,46,10.60
2014,09,15,02,47,10.60
2014,09,15,02,48,10.50
2014,09,15,02,49,10.50
2014,09,15,02,50,10.50
2014,09,15,02,51,10.50
2014,09,15,02,52,10.50
2014,09,15,02,53,10.50
2014,09,15,02,54,10.40
2014,09,15,02,55,10.40
2014,09,15,02,56,10.40
2014,09,15,02,57,10.30
2014,09,15,02,58,10.30
2014,09,15,02,59,10.30
2014,09,15,03,00,10.30
2014,09,15,03,01,10.30
2014,09,15,03,02,10.20
2014,09,15,03,03,10.20
2014,09,15,03,04,10.20
2014,09,15,03,05,10.20
2014,09,15,03,06,10.10
2014,09,15,03,07,10.10
2014,09,15,03,08,10.10
2014,09,15,03,09,10.10
2014,09,15,03,10,10.10
2014,09,15,03,11,10.00
2014,09,15,03,12,10.00
2014,09,15,03,13,10.00
2014,09,15,03,14,9.90
2014,09,15,03,15,9.90
2014,09,15,03,16,9.90
2014,09,15,03,17,9.90
2014,09,15,03,18,9.90
2014,09,15,03,19,9.80
2014,09,15,03,20,9.80
2014,09,15,03,21,9.80
2014,09,15,03,22,9.80
2014,09,15,03,23,9.80
2014,09,15,03,24,9.80
2014,09,15,03,25,9.80
2014,09,15,03,26,9.80
2014,09,15,03,27,9.80
2014,09,15,03,28,9.80
2014,09,15,03,29,9.80
2014,09,15,03,30,9.80
2014,09,15,03,31,9.80
2014,09,15,03,32,9.80
2014,09,15,03,33,9.80
2014,09,15,03,34,9.80
2014,09,15,03,35,9.80
2014,09,15,03,36,9.80
2014,09,15,03,37,9.80
2014,09,15,03,38,9.70
2014,09,15,03,39,9.80
2014,09,15,03,40,9.80
2014,09,15,03,41,9.80
2014,09,15,03,42,9.80
2014,09,15,03,43,9.80
2014,09,15,03,44,9.80
2014,09,15,03,45,9.80
2014,09,15,03,46,9.80
2014,09,15,03,47,9.80
2014,09,15,03,48,9.70
2014,09,15,03,49,9.70
2014,09,15,03,50,9.70
2014,09,15,03,51,9.70
2014,09,15,03,52,9.70
2014,09,15,03,53,9.70
2014,09,15,03,54,9.60
2014,09,15,03,55,9.60
2014,09,15,03,56,9.60
2014,09,15,03,57,9.60
2014,09,15,03,58,9.50
2014,09,15,03,59,9.50
2014,09,15,04,00,9.50
2014,09,15,04,01,9.50
2014,09,15,04,02,9.40
2014,09,15,04,03,9.40
2014,09,15,04,04,9.40
2014,09,15,04,05,9.40
2014,09,15,04,06,9.40
2014,09,15,04,07,9.40
2014,09,15,04,08,9.40
2014,09,15,04,09,9.40
2014,09,15,04,10,9.40
2014,09,15,04,11,9.40
2014,09,15,04,12,9.30
2014,09,15,04,13,9.30
2014,09,15,04,14,9.30
2014,09,15,04,15,9.30
2014,09,15,04,16,9.30
2014,09,15,04,17,9.30
2014,09,15,04,18,9.30
2014,09,15,04,19,9.30
2014,09,15,04,20,9.30
2014,09,15,04,21,9.30
2014,09,15,04,22,9.30
2014,09,15,04,23,9.20
2014,09,15,04,24,9.20
2014,09,15,04,25,9.20
2014,09,15,04,26,9.20
2014,09,15,04,27,9.20
2014,09,15,04,28,9.20
2014,09,15,04,29,9.20
2014,09,15,04,30,9.20
2014,09,15,04,31,9.20
2014,09,15,04,32,9.20
2014,09,15,04,33,9.20
2014,09,15,04,34,9.10
2014,09,15,04,35,9.10
2014,09,15,04,36,9.10
2014,09,15,04,37,9.10
2014,09,15,04,38,9.10
2014,09,15,04,39,9.10
2014,09,15,04,40,9.10
2014,09,15,04,41,9.10
2014,09,15,04,42,9.10
2014,09,15,04,43,9.00
2014,09,15,04,44,9.00
2014,09,15,04,45,9.00
2014,09,15,04,46,9.00
2014,09,15,04,47,9.00
2014,09,15,04,48,9.00
2014,09,15,04,49,9.00
2014,09,15,04,50,9.00
2014,09,15,04,51,8.90
2014,09,15,04,52,8.90
2014,09,15,04,53,8.90
2014,09,15,04,54,8.90
2014,09,15,04,55,8.90
2014,09,15,04,56,8.80
2014,09,15,04,57,8.80
2014,09,15,04,58,8.80
2014,09,15,04,59,8.80
2014,09,15,05,00,8.80
2014,09,15,05,01,8.80
2014,09,15,05,02,8.80
2014,09,15,05,03,8.80
2014,09,15,05,04,8.80
2014,09,15,05,05,8.80
2014,09,15,05,06,8.80
2014,09,15,05,07,8.80
2014,09,15,05,08,8.70
2014,09,15,05,09,8.70
2014,09,15,05,10,8.70
2014,09,15,05,11,8.70
2014,09,15,05,12,8.70
2014,09,15,05,13,8.70
2014,09,15,05,14,8.60
2014,09,15,05,15,8.60
2014,09,15,05,16,8.60
2014,09,15,05,17,8.60
2014,09,15,05,18,8.60
2014,09,15,05,19,8.60
2014,09,15,05,20,8.60
2014,09,15,05,21,8.50
2014,09,15,05,22,8.50
2014,09,15,05,23,8.50
2014,09,15,05,24,8.50
2014,09,15,05,25,8.40
2014,09,15,05,26,8.40
2014,09,15,05,27,8.40
2014,09,15,05,28,8.40
2014,09,15,05,29,8.40
2014,09,15,05,30,8.40
2014,09,15,05,31,8.40
2014,09,15,05,32,8.40
2014,09,15,05,33,8.40
2014,09,15,05,34,8.40
2014,09,15,05,35,8.40
2014,09,15,05,36,8.40
2014,09,15,05,37,8.40
2014,09,15,05,38,8.40
2014,09,15,05,39,8.40
2014,09,15,05,40,8.40
2014,09,15,05,41,8.40
2014,09,15,05,42,8.40
2014,09,15,05,43,8.40
2014,09,15,05,44,8.40
2014,09,15,05,45,8.40
2014,09,15,05,46,8.50
2014,09,15,05,47,8.50
2014,09,15,05,48,8.50
2014,09,15,05,49,8.50
2014,09,15,05,50,8.40
2014,09,15,05,51,8.40
2014,09,15,05,52,8.40
2014,09,15,05,53,8.40
2014,09,15,05,54,8.40
2014,09,15,05,55,8.40
2014,09,15,05,56,8.40
2014,09,15,05,57,8.40
2014,09,15,05,58,8.30
2014,09,15,05,59,8.30
2014,09,15,06,00,8.30
2014,09,15,06,01,8.30
2014,09,15,06,02,8.30
2014,09,15,06,03,8.30
2014,09,15,06,04,8.30
2014,09,15,06,05,8.30
2014,09,15,06,06,8.30
2014,09,15,06,07,8.20
2014,09,15,06,08,8.20
2014,09,15,06,09,8.20
2014,09,15,06,10,8.20
2014,09,15,06,11,8.20
2014,09,15,06,12,8.20
2014,09,15,06,13,8.20
2014,09,15,06,14,8.20
2014,09,15,06,15,8.20
2014,09,15,06,16,8.10
2014,09,15,06,17,8.10
2014,09,15,06,18,8.10
2014,09,15,06,19,8.10
2014,09,15,06,20,8.10
2014,09,15,06,21,8.10
2014,09,15,06,22,8.00
2014,09,15,06,23,8.00
2014,09,15,06,24,8.00
2014,09,15,06,25,8.00
2014,09,15,06,26,7.90
2014,09,15,06,27,7.90
2014,09,15,06,28,7.90
2014,09,15,06,29,7.90
2014,09,15,06,30,7.90
2014,09,15,06,31,7.90
2014,09,15,06,32,7.90
2014,09,15,06,33,7.90
2014,09,15,06,34,7.80
2014,09,15,06,35,7.80
2014,09,15,06,36,7.80
2014,09,15,06,37,7.80
2014,09,15,06,38,7.80
2014,09,15,06,39,7.80
2014,09,15,06,40,7.80
2014,09,15,06,41,7.80
2014,09,15,06,42,7.70
2014,09,15,06,43,7.70
2014,09,15,06,44,7.70
2014,09,15,06,45,7.80
2014,09,15,06,46,7.80
2014,09,15,06,47,7.70
2014,09,15,06,48,7.70
2014,09,15,06,49,7.70
2014,09,15,06,50,7.70
2014,09,15,06,51,7.70
2014,09,15,06,52,7.70
2014,09,15,06,53,7.70
2014,09,15,06,54,7.70
2014,09,15,06,55,7.70
2014,09,15,06,56,7.70
2014,09,15,06,57,7.70
2014,09,15,06,58,7.70
2014,09,15,06,59,7.70
2014,09,15,07,00,7.70
2014,09,15,07,01,7.70
2014,09,15,07,02,7.70
2014,09,15,07,03,7.70
2014,09,15,07,04,7.70
2014,09,15,07,05,7.70
2014,09,15,07,06,7.70
2014,09,15,07,07,7.70
2014,09,15,07,08,7.80
2014,09,15,07,09,7.80
2014,09,15,07,10,7.80
2014,09,15,07,11,7.80
2014,09,15,07,12,7.80
2014,09,15,07,13,7.80
2014,09,15,07,14,7.80
2014,09,15,07,15,7.80
2014,09,15,07,16,7.80
2014,09,15,07,17,7.80
2014,09,15,07,18,7.80
2014,09,15,07,19,7.80
2014,09,15,07,20,7.80
2014,09,15,07,21,7.80
2014,09,15,07,22,7.80
2014,09,15,07,23,7.80
2014,09,15,07,24,7.80
2014,09,15,07,25,7.80
2014,09,15,07,26,7.80
2014,09,15,07,27,7.80
2014,09,15,07,28,7.80
2014,09,15,07,29,7.70
2014,09,15,07,30,7.70
2014,09,15,07,31,7.70
2014,09,15,07,32,7.70
2014,09,15,07,33,7.70
2014,09,15,07,34,7.70
2014,09,15,07,35,7.70
2014,09,15,07,36,7.70
2014,09,15,07,37,7.70
2014,09,15,07,38,7.70
2014,09,15,07,39,7.70
2014,09,15,07,40,7.70
2014,09,15,07,41,7.70
2014,09,15,07,42,7.70
2014,09,15,07,43,7.70
2014,09,15,07,44,7.70
2014,09,15,07,45,7.70
2014,09,15,07,46,7.70
2014,09,15,07,47,7.70
2014,09,15,07,48,7.70
2014,09,15,07,49,7.70
2014,09,15,07,50,7.70
2014,09,15,07,51,7.70
2014,09,15,07,52,7.70
2014,09,15,07,53,7.80
2014,09,15,07,54,7.80
2014,09,15,07,55,7.80
2014,09,15,07,56,7.80
2014,09,15,07,57,7.90
2014,09,15,07,58,7.90
2014,09,15,07,59,8.00
2014,09,15,08,00,8.10
2014,09,15,08,01,8.10
2014,09,15,08,02,8.20
2014,09,15,08,03,8.20
2014,09,15,08,04,8.30
2014,09,15,08,05,8.40
2014,09,15,08,06,8.50
2014,09,15,08,07,8.50
2014,09,15,08,08,8.60
2014,09,15,08,09,8.60
2014,09,15,08,10,8.70
2014,09,15,08,11,8.70
2014,09,15,08,12,8.80
2014,09,15,08,13,8.90
2014,09,15,08,14,8.90
2014,09,15,08,15,9.00
2014,09,15,08,16,9.10
2014,09,15,08,17,9.20
2014,09,15,08,18,9.30
2014,09,15,08,19,9.40
2014,09,15,08,20,9.40
2014,09,15,08,21,9.50
2014,09,15,08,22,9.60
2014,09,15,08,23,9.60
2014,09,15,08,24,9.70
2014,09,15,08,25,9.80
2014,09,15,08,26,9.80
2014,09,15,08,27,9.90
2014,09,15,08,28,10.00
2014,09,15,08,29,10.10
2014,09,15,08,30,10.20
2014,09,15,08,31,10.30
2014,09,15,08,32,10.40
2014,09,15,08,33,10.50
2014,09,15,08,34,10.60
2014,09,15,08,35,10.60
2014,09,15,08,36,10.70
2014,09,15,08,37,10.70
2014,09,15,08,38,10.70
2014,09,15,08,39,10.70
2014,09,15,08,40,10.80
2014,09,15,08,41,10.80
2014,09,15,08,42,10.80
2014,09,15,08,43,10.80
2014,09,15,08,44,10.90
2014,09,15,08,45,11.00
2014,09,15,08,46,11.00
2014,09,15,08,47,11.10
2014,09,15,08,48,11.20
2014,09,15,08,49,11.20
2014,09,15,08,50,11.20
2014,09,15,08,51,11.20
2014,09,15,08,52,11.20
2014,09,15,08,53,11.60
2014,09,15,08,54,11.70
2014,09,15,08,55,11.70
2014,09,15,08,56,11.80
2014,09,15,08,57,11.90
2014,09,15,08,58,11.90
2014,09,15,08,59,12.00
2014,09,15,09,00,12.10
2014,09,15,09,01,12.20
2014,09,15,09,02,12.30
2014,09,15,09,03,12.30
2014,09,15,09,04,12.40
2014,09,15,09,05,12.50
2014,09,15,09,06,12.70
2014,09,15,09,07,12.80
2014,09,15,09,08,12.80
2014,09,15,09,09,12.90
2014,09,15,09,10,13.00
2014,09,15,09,11,13.00
2014,09,15,09,12,13.10
2014,09,15,09,13,13.10
2014,09,15,09,14,13.20
2014,09,15,09,15,13.30
2014,09,15,09,16,13.30
2014,09,15,09,17,13.40
2014,09,15,09,18,13.50
2014,09,15,09,19,13.60
2014,09,15,09,20,13.60
2014,09,15,09,21,13.60
2014,09,15,09,22,13.70
2014,09,15,09,23,13.70
2014,09,15,09,24,13.80
2014,09,15,09,25,13.90
2014,09,15,09,26,14.00
2014,09,15,09,27,14.00
2014,09,15,09,28,14.10
2014,09,15,09,29,14.10
2014,09,15,09,30,14.20
2014,09,15,09,31,14.20
2014,09,15,09,32,14.30
2014,09,15,09,33,14.40
2014,09,15,09,34,14.50
2014,09,15,09,35,14.60
2014,09,15,09,36,14.70
2014,09,15,09,37,14.90
2014,09,15,09,38,15.00
2014,09,15,09,39,15.20
2014,09,15,09,40,15.30
2014,09,15,09,41,15.40
2014,09,15,09,42,15.40
2014,09,15,09,43,15.50
2014,09,15,09,44,15.50
2014,09,15,09,45,15.60
2014,09,15,09,46,15.50
2014,09,15,09,47,15.60
2014,09,15,09,48,15.60
2014,09,15,09,49,15.70
2014,09,15,09,50,15.70
2014,09,15,09,51,15.80
2014,09,15,09,52,15.90
2014,09,15,09,53,16.00
2014,09,15,09,54,16.10
2014,09,15,09,55,16.20
2014,09,15,09,56,16.20
2014,09,15,09,57,16.20
2014,09,15,09,58,16.30
2014,09,15,09,59,16.30
2014,09,15,10,00,16.40
2014,09,15,10,01,16.50
2014,09,15,10,02,16.50
2014,09,15,10,03,16.60
2014,09,15,10,04,16.60
2014,09,15,10,05,16.70
2014,09,15,10,06,16.70
2014,09,15,10,07,16.70
2014,09,15,10,08,16.80
2014,09,15,10,09,16.80
2014,09,15,10,10,16.80
2014,09,15,10,11,16.80
2014,09,15,10,12,16.90
2014,09,15,10,13,16.90
2014,09,15,10,14,17.00
2014,09,15,10,15,17.00
2014,09,15,10,16,17.10
2014,09,15,10,17,17.10
2014,09,15,10,18,17.20
2014,09,15,10,19,17.20
2014,09,15,10,20,17.30
2014,09,15,10,21,17.30
2014,09,15,10,22,17.40
2014,09,15,10,23,17.50
2014,09,15,10,24,17.50
2014,09,15,10,25,17.60
2014,09,15,10,26,17.60
2014,09,15,10,27,17.70
2014,09,15,10,28,17.80
2014,09,15,10,29,17.90
2014,09,15,10,30,18.00
2014,09,15,10,31,18.00
2014,09,15,10,32,18.20
2014,09,15,10,33,18.30
2014,09,15,10,34,18.40
2014,09,15,10,35,18.50
2014,09,15,10,36,18.60
2014,09,15,10,37,18.60
2014,09,15,10,38,18.70
2014,09,15,10,39,18.80
2014,09,15,10,40,18.80
2014,09,15,10,41,18.80
2014,09,15,10,42,18.80
2014,09,15,10,43,18.90
2014,09,15,10,44,18.90
2014,09,15,10,45,19.00
2014,09,15,10,46,19.10
2014,09,15,10,47,19.10
2014,09,15,10,48,19.20
2014,09,15,10,49,19.30
2014,09,15,10,50,19.40
2014,09,15,10,51,19.60
2014,09,15,10,52,19.70
2014,09,15,10,53,19.80
2014,09,15,10,54,19.90
2014,09,15,10,55,20.00
2014,09,15,10,56,20.00
2014,09,15,10,57,20.10
2014,09,15,10,58,20.20
2014,09,15,10,59,20.30
2014,09,15,11,00,20.30
2014,09,15,11,01,20.40
2014,09,15,11,02,20.50
2014,09,15,11,03,20.50
2014,09,15,11,04,20.60
2014,09,15,11,05,20.60
2014,09,15,11,06,20.70
2014,09,15,11,07,20.70
2014,09,15,11,08,20.70
2014,09,15,11,09,20.80
2014,09,15,11,10,20.80
2014,09,15,11,11,20.80
2014,09,15,11,12,20.70
2014,09,15,11,13,20.70
2014,09,15,11,14,20.70
2014,09,15,11,15,20.60
2014,09,15,11,16,20.60
2014,09,15,11,17,20.60
2014,09,15,11,18,20.60
2014,09,15,11,19,20.60
2014,09,15,11,20,20.60
2014,09,15,11,21,20.70
2014,09,15,11,22,20.70
2014,09,15,11,23,20.80
2014,09,15,11,24,20.80
2014,09,15,11,25,20.90
2014,09,15,11,26,21.00
2014,09,15,11,27,21.00
2014,09,15,11,28,21.10
2014,09,15,11,29,21.20
2014,09,15,11,30,21.30
2014,09,15,11,31,21.30
2014,09,15,11,32,21.40
2014,09,15,11,33,21.40
2014,09,15,11,34,21.50
2014,09,15,11,35,21.50
2014,09,15,11,36,21.50
2014,09,15,11,37,21.50
2014,09,15,11,38,21.50
2014,09,15,11,39,21.50
2014,09,15,11,40,21.50
2014,09,15,11,41,21.50
2014,09,15,11,42,21.60
2014,09,15,11,43,21.60
2014,09,15,11,44,21.60
2014,09,15,11,45,21.60
2014,09,15,11,46,21.60
2014,09,15,11,47,21.70
2014,09,15,11,48,21.80
2014,09,15,11,49,21.90
2014,09,15,11,50,22.00
2014,09,15,11,51,22.00
2014,09,15,11,52,22.10
2014,09,15,11,53,22.20
2014,09,15,11,54,22.30
2014,09,15,11,55,22.40
2014,09,15,11,56,22.50
2014,09,15,11,57,22.60
2014,09,15,11,58,22.70
2014,09,15,11,59,22.80
2014,09,15,12,00,22.90
2014,09,15,12,01,23.00
2014,09,15,12,02,23.10
2014,09,15,12,03,23.20
2014,09,15,12,04,23.30
2014,09,15,12,05,23.40
2014,09,15,12,06,23.50
2014,09,15,12,07,23.60
2014,09,15,12,08,23.60
2014,09,15,12,09,23.70
2014,09,15,12,10,23.70
2014,09,15,12,11,23.70
2014,09,15,12,12,23.80
2014,09,15,12,13,23.80
2014,09,15,12,14,23.90
2014,09,15,12,15,23.90
2014,09,15,12,16,24.00
2014,09,15,12,17,24.00
2014,09,15,12,18,24.00
2014,09,15,12,19,24.00
2014,09,15,12,20,24.10
2014,09,15,12,21,24.10
2014,09,15,12,22,24.20
2014,09,15,12,23,24.20
2014,09,15,12,24,24.30
2014,09,15,12,25,24.30
2014,09,15,12,26,24.30
2014,09,15,12,27,24.30
2014,09,15,12,28,24.30
2014,09,15,12,29,24.30
2014,09,15,12,30,24.40
2014,09,15,12,31,24.40
2014,09,15,12,32,24.50
2014,09,15,12,33,24.50
2014,09,15,12,34,24.50
2014,09,15,12,35,24.60
2014,09,15,12,36,24.60
2014,09,15,12,37,24.60
2014,09,15,12,38,24.70
2014,09,15,12,39,24.70
2014,09,15,12,40,24.70
2014,09,15,12,41,24.70
2014,09,15,12,42,24.80
2014,09,15,12,43,24.90
2014,09,15,12,44,24.90
2014,09,15,12,45,25.00
2014,09,15,12,46,25.10
2014,09,15,12,47,25.20
2014,09,15,12,48,25.30
2014,09,15,12,49,25.40
2014,09,15,12,50,25.50
2014,09,15,12,51,25.50
2014,09,15,12,52,25.60
2014,09,15,12,53,25.70
2014,09,15,12,54,25.80
2014,09,15,12,55,25.90
2014,09,15,12,56,26.00
2014,09,15,12,57,26.10
2014,09,15,12,58,26.10
2014,09,15,12,59,26.10
2014,09,15,13,00,26.10
2014,09,15,13,01,26.10
2014,09,15,13,02,26.10
2014,09,15,13,03,26.20
2014,09,15,13,04,26.20
2014,09,15,13,05,26.30
2014,09,15,13,06,26.30
2014,09,15,13,07,26.30
2014,09,15,13,08,26.40
2014,09,15,13,09,26.40
2014,09,15,13,10,26.30
2014,09,15,13,11,26.40
2014,09,15,13,12,26.40
2014,09,15,13,13,26.40
2014,09,15,13,14,26.50
2014,09,15,13,15,26.60
2014,09,15,13,16,26.70
2014,09,15,13,17,26.80
2014,09,15,13,18,26.90
2014,09,15,13,19,27.00
2014,09,15,13,20,27.00
2014,09,15,13,21,27.10
2014,09,15,13,22,27.10
2014,09,15,13,23,27.10
2014,09,15,13,24,27.10
2014,09,15,13,25,27.20
2014,09,15,13,26,27.20
2014,09,15,13,27,27.30
2014,09,15,13,28,27.30
2014,09,15,13,29,27.30
2014,09,15,13,30,27.40
2014,09,15,13,31,27.40
2014,09,15,13,32,27.50
2014,09,15,13,33,27.50
2014,09,15,13,34,27.60
2014,09,15,13,35,27.80
2014,09,15,13,36,27.80
2014,09,15,13,37,27.90
2014,09,15,13,38,27.90
2014,09,15,13,39,28.00
2014,09,15,13,40,28.10
2014,09,15,13,41,28.10
2014,09,15,13,42,28.10
2014,09,15,13,43,28.10
2014,09,15,13,44,28.10
2014,09,15,13,45,28.10
2014,09,15,13,46,28.10
2014,09,15,13,47,28.10
2014,09,15,13,48,28.10
2014,09,15,13,49,28.20
2014,09,15,13,50,28.20
2014,09,15,13,51,28.30
2014,09,15,13,52,28.30
2014,09,15,13,53,28.40
2014,09,15,13,54,28.40
2014,09,15,13,55,28.50
2014,09,15,13,56,28.60
2014,09,15,13,57,28.60
2014,09,15,13,58,28.70
2014,09,15,13,59,28.70
2014,09,15,14,00,28.70
2014,09,15,14,01,28.70
2014,09,15,14,02,28.70
2014,09,15,14,03,28.60
2014,09,15,14,04,28.60
2014,09,15,14,05,28.60
2014,09,15,14,06,28.60
2014,09,15,14,07,28.60
2014,09,15,14,08,28.70
2014,09,15,14,09,28.70
2014,09,15,14,10,28.80
2014,09,15,14,11,28.80
2014,09,15,14,12,28.80
2014,09,15,14,13,28.80
2014,09,15,14,14,28.80
2014,09,15,14,15,28.80
2014,09,15,14,16,28.80
2014,09,15,14,17,28.80
2014,09,15,14,18,28.90
2014,09,15,14,19,29.00
2014,09,15,14,20,29.00
2014,09,15,14,21,29.10
2014,09,15,14,22,29.10
2014,09,15,14,23,29.10
2014,09,15,14,24,29.10
2014,09,15,14,25,29.10
2014,09,15,14,26,29.20
2014,09,15,14,27,29.20
2014,09,15,14,28,29.20
2014,09,15,14,29,29.20
2014,09,15,14,30,29.20
2014,09,15,14,31,29.20
2014,09,15,14,32,29.20
2014,09,15,14,33,29.20
2014,09,15,14,34,29.30
2014,09,15,14,35,29.30
2014,09,15,14,36,29.30
2014,09,15,14,37,29.30
2014,09,15,14,38,29.30
2014,09,15,14,39,29.30
2014,09,15,14,40,29.30
2014,09,15,14,41,29.30
2014,09,15,14,42,29.40
2014,09,15,14,43,29.40
2014,09,15,14,44,29.40
2014,09,15,14,45,29.40
2014,09,15,14,46,29.50
2014,09,15,14,47,29.50
2014,09,15,14,48,29.50
2014,09,15,14,49,29.50
2014,09,15,14,50,29.40
2014,09,15,14,51,29.40
2014,09,15,14,52,29.40
2014,09,15,14,53,29.40
2014,09,15,14,54,29.40
2014,09,15,14,55,29.40
2014,09,15,14,56,29.40
2014,09,15,14,57,29.40
2014,09,15,14,58,29.50
2014,09,15,14,59,29.50
2014,09,15,15,00,29.60
2014,09,15,15,01,29.70
2014,09,15,15,02,29.70
2014,09,15,15,03,29.70
2014,09,15,15,04,29.70
2014,09,15,15,05,29.80
2014,09,15,15,06,29.80
2014,09,15,15,07,29.80
2014,09,15,15,08,29.80
2014,09,15,15,09,29.80
2014,09,15,15,10,29.80
2014,09,15,15,11,29.70
2014,09,15,15,12,29.70
2014,09,15,15,13,29.70
2014,09,15,15,14,29.70
2014,09,15,15,15,29.80
2014,09,15,15,16,29.80
2014,09,15,15,17,29.80
2014,09,15,15,18,29.90
2014,09,15,15,19,29.90
2014,09,15,15,20,30.00
2014,09,15,15,21,30.00
2014,09,15,15,22,30.00
2014,09,15,15,23,30.00
2014,09,15,15,24,30.00
2014,09,15,15,25,30.00
2014,09,15,15,26,30.00
2014,09,15,15,27,29.90
2014,09,15,15,28,29.90
2014,09,15,15,29,29.80
2014,09,15,15,30,29.80
2014,09,15,15,31,29.80
2014,09,15,15,32,29.80
2014,09,15,15,33,29.80
2014,09,15,15,34,29.90
2014,09,15,15,35,29.90
2014,09,15,15,36,29.90
2014,09,15,15,37,29.90
2014,09,15,15,38,30.00
2014,09,15,15,39,30.00
2014,09,15,15,40,30.10
2014,09,15,15,41,30.10
2014,09,15,15,42,30.10
2014,09,15,15,43,30.10
2014,09,15,15,44,30.10
2014,09,15,15,45,30.10
2014,09,15,15,46,30.20
2014,09,15,15,47,30.20
2014,09,15,15,48,30.20
2014,09,15,15,49,30.30
2014,09,15,15,50,30.30
2014,09,15,15,51,30.30
2014,09,15,15,52,30.30
2014,09,15,15,53,30.30
2014,09,15,15,54,30.30
2014,09,15,15,55,30.30
2014,09,15,15,56,30.40
2014,09,15,15,57,30.40
2014,09,15,15,58,30.40
2014,09,15,15,59,30.50
2014,09,15,16,00,30.50
2014,09,15,16,01,30.50
2014,09,15,16,02,30.60
2014,09,15,16,03,30.60
2014,09,15,16,04,30.60
2014,09,15,16,05,30.60
2014,09,15,16,06,30.60
2014,09,15,16,07,30.50
2014,09,15,16,08,30.50
2014,09,15,16,09,30.40
2014,09,15,16,10,30.40
2014,09,15,16,11,30.40
2014,09,15,16,12,30.50
2014,09,15,16,13,30.50
2014,09,15,16,14,30.60
2014,09,15,16,15,30.60
2014,09,15,16,16,30.50
2014,09,15,16,17,30.50
2014,09,15,16,18,30.50
2014,09,15,16,19,30.50
2014,09,15,16,20,30.50
2014,09,15,16,21,30.40
2014,09,15,16,22,30.40
2014,09,15,16,23,30.40
2014,09,15,16,24,30.40
2014,09,15,16,25,30.40
2014,09,15,16,26,30.40
2014,09,15,16,27,30.40
2014,09,15,16,28,30.30
2014,09,15,16,29,30.30
2014,09,15,16,30,30.30
2014,09,15,16,31,30.40
2014,09,15,16,32,30.40
2014,09,15,16,33,30.40
2014,09,15,16,34,30.40
2014,09,15,16,35,30.30
2014,09,15,16,36,30.30
2014,09,15,16,37,30.30
2014,09,15,16,38,30.30
2014,09,15,16,39,30.30
2014,09,15,16,40,30.30
2014,09,15,16,41,30.30
2014,09,15,16,42,30.30
2014,09,15,16,43,30.30
2014,09,15,16,44,30.30
2014,09,15,16,45,30.30
2014,09,15,16,46,30.40
2014,09,15,16,47,30.40
2014,09,15,16,48,30.40
2014,09,15,16,49,30.40
2014,09,15,16,50,30.40
2014,09,15,16,51,30.40
2014,09,15,16,52,30.40
2014,09,15,16,53,30.40
2014,09,15,16,54,30.30
2014,09,15,16,55,30.30
2014,09,15,16,56,30.30
2014,09,15,16,57,30.30
2014,09,15,16,58,30.30
2014,09,15,16,59,30.30
2014,09,15,17,00,30.30
2014,09,15,17,01,30.30
2014,09,15,17,02,30.30
2014,09,15,17,03,30.30
2014,09,15,17,04,30.20
2014,09,15,17,05,30.20
2014,09,15,17,06,30.20
2014,09,15,17,07,30.20
2014,09,15,17,08,30.20
2014,09,15,17,09,30.20
2014,09,15,17,10,30.20
2014,09,15,17,11,30.20
2014,09,15,17,12,30.20
2014,09,15,17,13,30.20
2014,09,15,17,14,30.20
2014,09,15,17,15,30.20
2014,09,15,17,16,30.20
2014,09,15,17,17,30.20
2014,09,15,17,18,30.20
2014,09,15,17,19,30.20
2014,09,15,17,20,30.20
2014,09,15,17,21,30.20
2014,09,15,17,22,30.20
2014,09,15,17,23,30.10
2014,09,15,17,24,30.10
2014,09,15,17,25,30.00
2014,09,15,17,26,30.00
2014,09,15,17,27,30.00
2014,09,15,17,28,30.00
2014,09,15,17,29,30.00
2014,09,15,17,30,29.90
2014,09,15,17,31,29.90
2014,09,15,17,32,29.90
2014,09,15,17,33,29.90